Regional Weather Roundup
Issued by NWS

Home | Current Version | Previous Version | Graphics & Text | Print | Product List | Glossary On
Versions: 1 2 3 4 5 6 7 8 9 10 11 12 13 14 15 16 17 18 19 20 21 22 23 24 25 26 27 28 29 30 31 32 33 34 35 36 37 38 39 40 41 42 43 44 45 46 47 48 49 50
000
ASUS45 KCYS 040910
RWRWY

WYOMING REGIONAL WEATHER ROUNDUP
NATIONAL WEATHER SERVICE CHEYENNE WY
300 AM MDT TUE AUG 04 2015

NOTE:  "FAIR" INDICATES FEW OR NO CLOUDS BELOW 12,000 FEET
WITH NO SIGNIFICANT WEATHER AND/OR OBSTRUCTIONS TO VISIBILITY.

WYZ001-041000-
YELLOWSTONE NATIONAL PARK

CITY           SKY/WX    TMP DP  RH WIND       PRES   REMARKS
LK YELLOWSTONE   N/A     49  47  93 CALM      30.24S
W YELLOWSTONE  NOT AVBL

$$
WYZ002>013-054>058-071-098>099-041000-
NORTHERN WYOMING

CITY           SKY/WX    TMP DP  RH WIND       PRES   REMARKS
JACKSON        NOT AVBL
CODY           FAIR      63  50  63 W3        29.98R
GREYBULL       MOCLDY    66  48  52 E6        29.91F
WORLAND        FAIR      65  53  65 S8        29.94S
SHERIDAN       FAIR      72  47  40 SE10      29.90R
BUFFALO        MOCLDY    66  48  52 S3        29.99S
GILLETTE       FAIR      63  50  62 SW3       29.95F
HULETT         FAIR      61  54  77 E7        29.96R
NEWCASTLE      FAIR      72  46  40 MISG      29.95S

$$
WYZ014>020-022>026-101>103-041000-
CENTRAL WYOMING

CITY           SKY/WX    TMP DP  RH WIND       PRES   REMARKS
BIG PINEY      MOCLDY    55  52  89 NW6       30.16F
PINEDALE       FAIR      52  52 100 W7        30.16S
DUBOIS         CLOUDY    54  48  82 NW8       30.14S
LANDER         CLOUDY    58  56  93 N5        30.03S
RIVERTON       CLOUDY    59  55  87 NW7       30.03S
CASPER         FAIR      57  54  89 W5        30.02F
DOUGLAS        FAIR      57  47  69 CALM      30.00F

$$
WYZ021-027>030-104>119-041000-
SOUTHERN WYOMING

CITY           SKY/WX    TMP DP  RH WIND       PRES   REMARKS
EVANSTON       FAIR      49  46  90 W7        30.23S
KEMMERER       FAIR      50  50 100 W13       30.21S
FORT BRIDGER   SUNNY     52  52 100 W9        30.24R
ROCK SPRINGS   FAIR      53  50  89 SW10      30.15F
DIXON          CLOUDY    58  50  74 S5        30.20S
RAWLINS        CLOUDY    56  51  84 SW16G23   30.14F
SARATOGA       CLOUDY    55  50  82 SW10      30.19S
LARAMIE        MOCLDY    55  50  83 CALM      30.18S
CHEYENNE       FAIR      63  47  55 W12       30.07F
TORRINGTON     FAIR      62  51  67 E8        29.94F
PINE BLUFFS    FAIR      55  50  82 SW6       30.04S

$$



USA.gov is the U.S. government's official web portal to all federal, state and local government web resources and services.